When you browse on this site, cookies collect data to enhance your experience and personalize the content and advertising you see.
Visit our Privacy Policy to learn more. By continuing to use the site, you agree to this use of cookies and data.
  • In Sweden
  • List of Countries
  • For 7 days
  • Water Temperature
  • Weather Map
  • Weather Widgets
  • user-avatar
    Login

    Hourly Weather Bregenz

    Today, 21 September, Saturday

    Time Temperature Precipitation Wind Pressure Humidity
    00:00 +5°C° 0 mm 1 mps 649 mmHg 87%
    01:00 +5°C° 0 mm 1 mps 649 mmHg 87%
    02:00 +5°C° 0 mm 1 mps 649 mmHg 87%
    03:00 +5°C° 0 mm 1 mps 649 mmHg 87%
    04:00 +5°C° 0 mm 1 mps 648 mmHg 87%
    05:00 +5°C° 0 mm 1 mps 648 mmHg 86%
    06:00 +5°C° 0 mm 1 mps 648 mmHg 85%
    07:00 +6°C° 0 mm 1 mps 648 mmHg 83%
    08:00 +8°C° 0 mm 1 mps 649 mmHg 75%
    09:00 +11°C° 0 mm 1 mps 650 mmHg 67%
    10:00 +14°C° 0 mm 1 mps 650 mmHg 58%
    11:00 +15°C° 0 mm 1 mps 650 mmHg 56%
    12:00 +16°C° 0 mm 1 mps 650 mmHg 53%
    13:00 +19°C° 0 mm 1 mps 651 mmHg 51%
    14:00 +18°C° 0 mm 1 mps 650 mmHg 53%
    15:00 +18°C° 0 mm 1 mps 650 mmHg 56%
    16:00 +18°C° 0 mm 1 mps 649 mmHg 58%
    17:00 +15°C° 0 mm 1 mps 649 mmHg 66%
    18:00 +12°C° 0 mm 1 mps 648 mmHg 74%
    19:00 +10°C° 0 mm 1 mps 647 mmHg 82%
    20:00 +9°C° 0 mm 2 mps 647 mmHg 81%
    21:00 +8°C° 0 mm 2 mps 647 mmHg 79%
    22:00 +8°C° 0 mm 2 mps 647 mmHg 78%
    23:00 +7°C° 0 mm 2 mps 647 mmHg 76%

    Tomorrow, 22 September, Sunday

    Time Temperature Precipitation Wind Pressure Humidity
    00:00 +7°C° 0 mm 2 mps 647 mmHg 74%
    01:00 +7°C° 0 mm 2 mps 646 mmHg 72%
    02:00 +7°C° 0 mm 2 mps 646 mmHg 72%
    03:00 +7°C° 0 mm 2 mps 646 mmHg 71%
    04:00 +7°C° 0 mm 2 mps 645 mmHg 71%
    05:00 +7°C° 0 mm 2 mps 645 mmHg 71%
    06:00 +7°C° 0 mm 2 mps 645 mmHg 71%
    07:00 +8°C° 0 mm 2 mps 645 mmHg 72%
    08:00 +10°C° 0 mm 2 mps 646 mmHg 67%
    09:00 +14°C° 0 mm 2 mps 647 mmHg 61%
    10:00 +18°C° 0 mm 1 mps 647 mmHg 56%
    11:00 +18°C° 0 mm 1 mps 647 mmHg 55%
    12:00 +19°C° 0 mm 1 mps 647 mmHg 53%
    13:00 +20°C° 0 mm 1 mps 647 mmHg 51%
    14:00 +20°C° 0.1 mm 1 mps 647 mmHg 56%
    15:00 +19°C° 0.1 mm 1 mps 646 mmHg 60%
    16:00 +18°C° 0.1 mm 1 mps 646 mmHg 64%
    17:00 +16°C° 0.1 mm 1 mps 645 mmHg 70%
    18:00 +14°C° 0.1 mm 1 mps 645 mmHg 76%
    19:00 +12°C° 0.1 mm 1 mps 645 mmHg 82%
    20:00 +12°C° 0 mm 1 mps 645 mmHg 82%
    21:00 +10°C° 0 mm 2 mps 645 mmHg 83%
    22:00 +10°C° 0 mm 2 mps 645 mmHg 83%
    23:00 +10°C° 0 mm 2 mps 645 mmHg 84%

    Day after tomorrow, 23 September, Monday

    Time Temperature Precipitation Wind Pressure Humidity
    00:00 +10°C° 0 mm 2 mps 645 mmHg 86%
    01:00 +10°C° 0 mm 2 mps 645 mmHg 87%
    02:00 +9°C° 1.8 mm 2 mps 645 mmHg 91%
    03:00 +8°C° 1.8 mm 2 mps 645 mmHg 94%
    04:00 +8°C° 1.8 mm 2 mps 645 mmHg 98%
    05:00 +8°C° 1.7 mm 2 mps 645 mmHg 97%
    06:00 +8°C° 1.7 mm 2 mps 646 mmHg 97%
    07:00 +8°C° 1.7 mm 1 mps 646 mmHg 97%
    08:00 +9°C° 1.3 mm 1 mps 646 mmHg 96%
    09:00 +9°C° 1.3 mm 1 mps 646 mmHg 95%
    10:00 +9°C° 1.3 mm 1 mps 646 mmHg 94%
    11:00 +10°C° 0.2 mm 1 mps 647 mmHg 87%
    12:00 +11°C° 0.2 mm 1 mps 647 mmHg 80%
    13:00 +12°C° 0.2 mm 1 mps 647 mmHg 73%
    14:00 +12°C° 0 mm 0 mps 647 mmHg 70%
    15:00 +12°C° 0 mm 0 mps 647 mmHg 66%
    16:00 +12°C° 0 mm 0 mps 647 mmHg 63%
    17:00 +10°C° 0 mm 0 mps 646 mmHg 71%
    18:00 +8°C° 0 mm 0 mps 646 mmHg 80%
    19:00 +6°C° 0 mm 0 mps 645 mmHg 88%
    20:00 +6°C° 0 mm 0 mps 645 mmHg 88%
    21:00 +6°C° 0 mm 1 mps 646 mmHg 89%
    22:00 +6°C° 0 mm 1 mps 646 mmHg 89%
    23:00 +6°C° 0 mm 1 mps 646 mmHg 89%

    24 September, Tuesday

    Time Temperature Precipitation Wind Pressure Humidity
    00:00 +6°C° 0 mm 1 mps 645 mmHg 88%
    01:00 +6°C° 0 mm 1 mps 645 mmHg 88%
    02:00 +5°C° 0 mm 1 mps 645 mmHg 87%
    03:00 +5°C° 0 mm 1 mps 645 mmHg 86%
    04:00 +5°C° 0 mm 1 mps 645 mmHg 85%
    05:00 +6°C° 0 mm 1 mps 645 mmHg 83%
    06:00 +6°C° 0 mm 1 mps 645 mmHg 80%
    07:00 +6°C° 0 mm 1 mps 645 mmHg 78%
    08:00 +9°C° 0 mm 1 mps 645 mmHg 71%
    09:00 +11°C° 0 mm 1 mps 646 mmHg 63%
    10:00 +13°C° 0 mm 1 mps 647 mmHg 56%
    11:00 +13°C° 0 mm 1 mps 646 mmHg 55%
    12:00 +14°C° 0 mm 1 mps 646 mmHg 53%
    13:00 +15°C° 0 mm 1 mps 646 mmHg 52%
    14:00 +14°C° 0 mm 1 mps 646 mmHg 56%
    15:00 +12°C° 0 mm 0 mps 645 mmHg 60%
    16:00 +12°C° 0 mm 0 mps 645 mmHg 64%
    17:00 +11°C° 0 mm 0 mps 645 mmHg 65%
    18:00 +10°C° 0 mm 0 mps 645 mmHg 67%
    19:00 +10°C° 0 mm 1 mps 645 mmHg 68%
    20:00 +10°C° 0 mm 1 mps 645 mmHg 68%
    21:00 +10°C° 0 mm 1 mps 645 mmHg 67%
    22:00 +9°C° 0 mm 2 mps 645 mmHg 66%
    23:00 +9°C° 0.2 mm 2 mps 645 mmHg 71%

    25 September, Wednesday

    Time Temperature Precipitation Wind Pressure Humidity
    00:00 +8°C° 0.2 mm 2 mps 644 mmHg 77%
    01:00 +8°C° 0.2 mm 2 mps 644 mmHg 82%
    02:00 +9°C° 0.9 mm 1 mps 644 mmHg 86%
    03:00 +9°C° 0.9 mm 1 mps 644 mmHg 89%
    04:00 +9°C° 0.9 mm 1 mps 644 mmHg 93%
    05:00 +9°C° 0.9 mm 1 mps 644 mmHg 93%
    06:00 +9°C° 0.9 mm 1 mps 644 mmHg 93%
    07:00 +9°C° 0.9 mm 1 mps 643 mmHg 93%
    08:00 +9°C° 1 mm 1 mps 644 mmHg 93%
    09:00 +9°C° 1 mm 1 mps 644 mmHg 93%
    10:00 +9°C° 1 mm 1 mps 644 mmHg 93%
    11:00 +9°C° 0.3 mm 1 mps 644 mmHg 92%
    12:00 +10°C° 0.3 mm 1 mps 644 mmHg 91%
    13:00 +10°C° 0.3 mm 1 mps 644 mmHg 90%
    14:00 +10°C° 0.2 mm 1 mps 644 mmHg 88%
    15:00 +11°C° 0.2 mm 1 mps 644 mmHg 87%
    16:00 +11°C° 0.2 mm 1 mps 644 mmHg 86%
    17:00 +10°C° 0.1 mm 1 mps 644 mmHg 87%
    18:00 +10°C° 0.1 mm 1 mps 644 mmHg 88%
    19:00 +9°C° 0.1 mm 1 mps 644 mmHg 89%
    20:00 +9°C° 0.1 mm 1 mps 644 mmHg 89%
    21:00 +9°C° 0.1 mm 1 mps 644 mmHg 89%
    22:00 +9°C° 0.1 mm 1 mps 644 mmHg 90%
    23:00 +8°C° 0.1 mm 1 mps 644 mmHg 91%

    26 September, Thursday

    Time Temperature Precipitation Wind Pressure Humidity
    00:00 +8°C° 0.1 mm 1 mps 644 mmHg 92%
    01:00 +8°C° 0.1 mm 1 mps 644 mmHg 93%
    02:00 +8°C° 0.1 mm 1 mps 644 mmHg 93%
    03:00 +8°C° 0.1 mm 1 mps 644 mmHg 93%
    04:00 +8°C° 0.1 mm 1 mps 644 mmHg 93%
    05:00 +7°C° 0 mm 1 mps 644 mmHg 93%
    06:00 +7°C° 0 mm 1 mps 644 mmHg 93%
    07:00 +7°C° 0 mm 1 mps 644 mmHg 92%
    08:00 +9°C° 0 mm 1 mps 645 mmHg 85%
    09:00 +11°C° 0 mm 1 mps 646 mmHg 77%
    10:00 +13°C° 0 mm 1 mps 647 mmHg 69%
    11:00 +14°C° 0 mm 1 mps 647 mmHg 64%
    12:00 +15°C° 0 mm 1 mps 647 mmHg 59%
    13:00 +16°C° 0 mm 2 mps 647 mmHg 53%
    14:00 +16°C° 0 mm 2 mps 647 mmHg 56%
    15:00 +16°C° 0 mm 2 mps 646 mmHg 59%
    16:00 +15°C° 0 mm 2 mps 646 mmHg 61%
    17:00 +14°C° 0 mm 1 mps 646 mmHg 69%
    18:00 +12°C° 0 mm 1 mps 645 mmHg 77%
    19:00 +10°C° 0 mm 1 mps 645 mmHg 84%
    20:00 +10°C° 0 mm 1 mps 645 mmHg 86%
    21:00 +9°C° 0 mm 1 mps 645 mmHg 87%
    22:00 +9°C° 0 mm 1 mps 646 mmHg 88%
    23:00 +8°C° 0 mm 1 mps 646 mmHg 88%
    Show more